Location: NCO
(38.4404°N, 77.1340°W)
Time: 18:36:50
(UTC-05:00)

Tiangong 2 - Visible Passes

Search period start: 17 February 2019 00:00
Search period end: 27 February 2019 00:00
Orbit: 381 x 390 km, 42.8° (Epoch: 17 February)

Date Brightness Start Highest point End Pass type
(mag) Time Alt. Az. Time Alt. Az. Time Alt. Az.
17 Feb 1.0 19:10:08 10° WNW 19:13:17 68° NNE 19:13:43 57° ENE visible
18 Feb 2.9 19:47:45 10° W 19:49:46 30° WSW 19:49:46 30° WSW visible
19 Feb 1.2 18:48:25 10° WNW 18:51:35 74° SSW 18:53:39 19° ESE visible
20 Feb 3.1 19:26:19 10° W 19:28:53 22° SW 19:29:55 19° S visible
21 Feb 2.3 18:26:45 10° W 18:29:46 40° SSW 18:32:45 10° SE visible
22 Feb 4.1 19:05:32 10° WSW 19:06:54 12° SW 19:08:16 10° SSW visible
